星链-35757(STARLINK-35757)

导读 | 豆包AI

STARLINK-35757是美国SpaceX星链星座的卫星,于2025年10月31日发射入轨,属于星链网络扩容的组成部分。星链系统旨在为全球提供高速低延迟卫星互联网服务,该卫星延续星链设计,服务覆盖偏远地区、海运航空等场景,补充了星座的全球通信容量,进一步完善星链星座的服务覆盖与性能。

基本信息
目录编号:
66270
目录名称:
STARLINK-35757
国际标识:
2025-247F
轨道中心:
EARTH
卫星名称:
星链-35757
卫星全名:
星链-35757(STARLINK-35757)
卫星状态:
在轨 (已飞行180 天)
发射日期:
2025-10-31 UTC
国别 :
美国 (US)
星等 :
--
轨道信息
数据来源 国际轨道数据
星历时间: 2026-04-29T04:00:01+0800
7小时前
查看轨道信息
半长轴: 6840.869km
偏心率: 0.00013
轨道倾角: 53.160°
近地点辐角 84.850°
升交点赤经 318.264°
平近点角 313.263°
近地点: 461.842km
远地点: 463.622km
周期: 93.848分钟
每日圈数: 15.343904
详细信息
固有亮度:
5
最大亮度:
2.5
卫星平台:
Starlink V1.0
覆盖范围:
全球
运营商:
太空探索技术公司
运营商所在国:
美国
制造商(研发单位):
太空探索技术公司
制造商所在国:
美国
使用方式:
暂无
卫星简介
Starlink 计划是 SpaceX 推出的全球卫星互联网项目,通过发射低轨道卫星,为全球尤其是偏远地区提供高速、低延迟的互联网服务。自 2019 年起,Starlink 已部署数千颗卫星,旨在缩小全球数字鸿沟,推动互联网普及。该项目还为军事、航空等行业提供通信支持,带来广泛经济效益。
2D轨道图
3D轨道图
轨道高度分析图
轨道倾角分析图
轨道综合分析图
查看轨道综合分析图